Location: Lecco
(45.8566°N, 9.3977°E)
Time: 09:52:29
(UTC+02:00)

ISS - Pass Details

Date: 13 July 2018
Orbit: 402 x 408 km, 51.6° (Epoch: 19 July)

Event Time Altitude Azimuth Distance (km) Brightness Sun altitude
Exits shadow 03:30:45 13° 282° (WNW) 1,278 -1.5 -16.8°
Maximum altitude 03:33:18 35° 347° (NNW) 679 -2.3 -16.6°
Drops below altitude 10° 03:36:23 10° 55° (NE) 1,473 0.0 -16.3°
Sets 03:38:35 0° 65° (ENE) 2,336 1.0 -16.1°
